Weather History for KEYW - January, 2012

Change the Weather History Date:

Friday, January 6, 2012

  Actual Average Record
Temperature  
Mean Temperature 60 °F 69 °F  
Max Temperature 71 °F 74 °F 84 °F (1926)
Min Temperature 49 °F 64 °F 49 °F (1879)
Degree Days  
Heating Degree Days 5 1  
Month to date heating degree days 23 6  
Since 1 July heating degree days 23 24  
Cooling Degree Days 0 5  
Month to date cooling degree days 16 32  
Year to date cooling degree days 16 32  
Growing Degree Days 10 (Base 50)    
Moisture  
Dew Point 47 °F    
Average Humidity 58    
Maximum Humidity 80    
Minimum Humidity 35    
Precipitation  
Precipitation 0.00 in 0.06 in 0.71 in (1941)
Month to date precipitation 0.00 0.35  
Year to date precipitation 0.00 0.35  
Snow  
Snow 0.00 in - - ()
Month to date snowfall 0.0  
Since 1 July snowfall 0.0  
Snow Depth 0.00 in    
Sea Level Pressure  
Sea Level Pressure 30.20 in    
Wind  
Wind Speed 5 mph (NE)    
Max Wind Speed 9 mph    
Max Gust Speed 13 mph    
Visibility 10 miles    
Events      
T = Trace of Precipitation, MM = Missing Value Source: NWS Daily Summary

Daily Weather History Graph

Daily Weather History Graph

Search for Another Location

Airport or City:

Trip Planner

Search our weather history database for the weather conditions in past years. The results will help you decide how hot, cold, wet, or windy it might be!

Date:

Astronomy

Jan. 06, 2012 Rise Set
Actual Time 7:12 AM EST 5:53 PM EST
Civil Twilight 6:47 AM EST 6:17 PM EST
Nautical Twilight 6:19 AM EST 6:46 PM EST
Astronomical Twilight 5:51 AM EST 7:14 PM EST
Moon 3:45 PM EST 4:49 AM EST
Length of Visible Light 11h 30m
Length of Day
10h 40m
Waxing Gibbous, 93% of the Moon is Illuminated
Jan 6
Waxing Gibbous
Jan 9
Full
Jan 16
Last Quarter
Jan 23
New
Jan 30
First Quarter

Hourly Weather History & Observations

Time (EST) Temp. Dew Point Humidity Pressure Visibility Wind Dir Wind Speed Gust Speed Precip Events Conditions
12:53 AM 57.0 °F 48.9 °F 74% 30.23 in 10.0 mi ENE 3.5 mph - N/A   Clear
1:53 AM 55.9 °F 46.9 °F 72% 30.22 in 10.0 mi East 4.6 mph - N/A   Clear
2:53 AM 51.8 °F 42.8 °F 71% 30.20 in 10.0 mi Calm Calm - N/A   Clear
3:53 AM 48.9 °F 43.0 °F 80% 30.20 in 10.0 mi NE 4.6 mph - N/A   Clear
4:53 AM 54.0 °F 46.9 °F 77% 30.19 in 10.0 mi NE 5.8 mph - N/A   Clear
5:53 AM 54.0 °F 46.0 °F 75% 30.20 in 10.0 mi NE 4.6 mph - N/A   Clear
6:53 AM 55.9 °F 46.9 °F 72% 30.21 in 10.0 mi ENE 3.5 mph - N/A   Clear
7:53 AM 57.0 °F 48.9 °F 74% 30.22 in 10.0 mi ENE 3.5 mph - N/A   Clear
8:53 AM 64.0 °F 46.0 °F 52% 30.24 in 10.0 mi ENE 3.5 mph - N/A   Clear
9:53 AM 66.9 °F 44.1 °F 44% 30.26 in 10.0 mi East 6.9 mph - N/A   Clear
10:53 AM 66.9 °F 41.0 °F 39% 30.26 in 10.0 mi ENE 9.2 mph - N/A   Clear
11:53 AM 69.1 °F 45.0 °F 42% 30.24 in 10.0 mi NNE 5.8 mph - N/A   Clear
12:53 PM 69.1 °F 45.0 °F 42% 30.21 in 10.0 mi NNE 8.1 mph - N/A   Clear
1:53 PM 70.0 °F 46.0 °F 42% 30.18 in 10.0 mi NE 5.8 mph - N/A   Unknown
2:53 PM 71.1 °F 45.0 °F 39% 30.16 in 10.0 mi NNE 5.8 mph - N/A   Clear
3:53 PM 71.1 °F 43.0 °F 36% 30.15 in 10.0 mi North 3.5 mph - N/A   Clear
4:53 PM 69.1 °F 44.1 °F 40% 30.15 in 10.0 mi North 5.8 mph - N/A   Clear
5:53 PM 64.0 °F 46.0 °F 52% 30.16 in 10.0 mi NNE 4.6 mph - N/A   Clear
6:53 PM 62.1 °F 50.0 °F 65% 30.16 in 10.0 mi NNE 4.6 mph - N/A   Clear
7:53 PM 61.0 °F 51.1 °F 70% 30.17 in 10.0 mi NE 4.6 mph - N/A   Clear
8:53 PM 61.0 °F 52.0 °F 72% 30.18 in 10.0 mi NNE 4.6 mph - N/A   Clear
9:53 PM 59.0 °F 52.0 °F 78% 30.19 in 10.0 mi North 4.6 mph - N/A   Clear
10:53 PM 60.1 °F 53.1 °F 78% 30.18 in 10.0 mi North 3.5 mph - N/A   Mostly Cloudy
11:53 PM 60.1 °F 54.0 °F 80% 30.18 in 10.0 mi North 3.5 mph - N/A   Clear